Radiation Dose at Monitoring Post of Fukushima Daini Nuclear Power Station
Date,Time,MP-1(microSv/h),MP-2(microSv/h),MP-3(microSv/h),MP-4(microSv/h),MP-5(microSv/h),MP-6(microSv/h),MP-7(microSv/h),Wind Direction,Wind Velocity(m/s),Rain
2024/01/24,00:00,0.147,0.128,0.208,0.197,0.208,0.116,0.076,north-northwest,5.0,No
2024/01/24,00:10,0.148,0.129,0.207,0.197,0.208,0.117,0.078,northwest,5.1,No
2024/01/24,00:20,0.149,0.130,0.208,0.197,0.207,0.116,0.078,northwest,4.4,No
2024/01/24,00:30,0.150,0.129,0.208,0.196,0.209,0.117,0.078,northwest,7.3,No
2024/01/24,00:40,0.148,0.130,0.208,0.196,0.208,0.117,0.077,northwest,7.8,No
2024/01/24,00:50,0.148,0.130,0.208,0.196,0.208,0.117,0.078,northwest,5.6,No
2024/01/24,01:00,0.149,0.129,0.207,0.197,0.207,0.116,0.078,northwest,5.9,No
2024/01/24,01:10,0.148,0.129,0.207,0.198,0.207,0.117,0.077,west-northwest,7.9,No
2024/01/24,01:20,0.147,0.129,0.207,0.197,0.207,0.115,0.077,northwest,6.8,No
2024/01/24,01:30,0.148,0.129,0.207,0.197,0.206,0.116,0.077,west-northwest,8.2,No
2024/01/24,01:40,0.147,0.129,0.208,0.196,0.206,0.117,0.077,west-northwest,7.3,No
2024/01/24,01:50,0.147,0.128,0.207,0.197,0.206,0.117,0.077,west-northwest,7.3,No
2024/01/24,02:00,0.147,0.128,0.207,0.197,0.206,0.116,0.077,northwest,8.1,No
2024/01/24,02:10,0.147,0.129,0.206,0.196,0.206,0.116,0.076,northwest,9.6,No
2024/01/24,02:20,0.146,0.127,0.207,0.196,0.205,0.116,0.076,northwest,7.7,No
2024/01/24,02:30,0.147,0.128,0.208,0.196,0.205,0.117,0.076,northwest,7.3,No
2024/01/24,02:40,0.146,0.128,0.206,0.196,0.206,0.116,0.076,northwest,7.4,No
2024/01/24,02:50,0.147,0.128,0.207,0.197,0.205,0.116,0.076,northwest,6.6,No
2024/01/24,03:00,0.146,0.128,0.207,0.196,0.205,0.116,0.076,northwest,6.5,No
2024/01/24,03:10,0.145,0.128,0.206,0.197,0.205,0.116,0.076,northwest,5.1,No
2024/01/24,03:20,0.147,0.129,0.207,0.195,0.206,0.116,0.076,northwest,3.4,No
2024/01/24,03:30,0.148,0.128,0.207,0.196,0.206,0.116,0.076,west-northwest,3.4,No
2024/01/24,03:40,0.146,0.129,0.206,0.197,0.206,0.116,0.077,west-northwest,4.2,No
2024/01/24,03:50,0.147,0.128,0.207,0.196,0.205,0.117,0.076,west-northwest,5.1,No
2024/01/24,04:00,0.146,0.128,0.206,0.196,0.205,0.117,0.076,west-northwest,4.3,No
2024/01/24,04:10,0.145,0.128,0.208,0.196,0.205,0.117,0.075,west-northwest,3.3,No
2024/01/24,04:20,0.146,0.128,0.206,0.196,0.205,0.116,0.076,west-northwest,3.5,No
2024/01/24,04:30,0.146,0.128,0.206,0.197,0.205,0.116,0.077,west-northwest,3.4,No
2024/01/24,04:40,0.147,0.128,0.207,0.196,0.205,0.116,0.077,west-northwest,1.8,No
2024/01/24,04:50,0.146,0.128,0.207,0.197,0.204,0.117,0.077,northwest,1.3,No
2024/01/24,05:00,0.147,0.127,0.206,0.194,0.205,0.117,0.076,northwest,1.5,No
2024/01/24,05:10,0.146,0.128,0.206,0.197,0.206,0.116,0.076,northwest,1.0,No
2024/01/24,05:20,0.147,0.128,0.206,0.196,0.206,0.116,0.077,northwest,1.5,No
2024/01/24,05:30,0.146,0.128,0.206,0.196,0.203,0.116,0.076,northwest,0.9,No
2024/01/24,05:40,0.146,0.127,0.206,0.196,0.205,0.116,0.076,west-northwest,2.1,No
2024/01/24,05:50,0.145,0.128,0.207,0.196,0.205,0.115,0.076,west-northwest,2.6,No
2024/01/24,06:00,0.145,0.127,0.206,0.196,0.204,0.116,0.076,northwest,2.5,No
2024/01/24,06:10,0.145,0.127,0.208,0.196,0.204,0.116,0.076,north-northwest,3.4,No
2024/01/24,06:20,0.146,0.128,0.206,0.196,0.205,0.117,0.076,northwest,2.6,No
2024/01/24,06:30,0.146,0.128,0.207,0.196,0.204,0.116,0.076,northwest,4.8,No
2024/01/24,06:40,0.146,0.128,0.206,0.197,0.205,0.116,0.076,northwest,5.3,No
2024/01/24,06:50,0.146,0.128,0.206,0.196,0.203,0.116,0.075,northwest,8.4,No
2024/01/24,07:00,0.146,0.127,0.206,0.196,0.203,0.115,0.075,west-northwest,11.4,No
2024/01/24,07:10,0.146,0.128,0.206,0.196,0.203,0.116,0.076,west-northwest,12.3,No
2024/01/24,07:20,0.145,0.128,0.206,0.197,0.203,0.116,0.076,west-northwest,15.5,No
2024/01/24,07:30,0.145,0.127,0.206,0.194,0.204,0.116,0.075,west-northwest,13.9,No
2024/01/24,07:40,0.146,0.126,0.206,0.196,0.204,0.115,0.076,west-northwest,12.0,No
2024/01/24,07:50,0.146,0.127,0.207,0.196,0.203,0.116,0.075,west-northwest,13.7,No
2024/01/24,08:00,0.145,0.128,0.208,0.195,0.204,0.116,0.075,west-northwest,11.2,No
2024/01/24,08:10,0.145,0.127,0.207,0.196,0.204,0.116,0.075,west-northwest,10.9,No
2024/01/24,08:20,0.146,0.127,0.205,0.194,0.204,0.116,0.075,west-northwest,10.6,No
2024/01/24,08:30,0.146,0.128,0.207,0.195,0.204,0.116,0.075,west-northwest,11.7,No
2024/01/24,08:40,0.146,0.128,0.206,0.195,0.204,0.116,0.076,west,9.3,No
2024/01/24,08:50,0.146,0.128,0.207,0.194,0.203,0.116,0.076,northwest,10.1,No
2024/01/24,09:00,0.145,0.127,0.206,0.195,0.203,0.116,0.075,west-northwest,8.2,No
2024/01/24,09:10,0.145,0.127,0.206,0.195,0.203,0.117,0.075,west-northwest,5.8,No
2024/01/24,09:20,0.146,0.127,0.205,0.196,0.204,0.116,0.075,west,2.5,No
2024/01/24,09:30,0.145,0.127,0.206,0.196,0.204,0.116,0.075,west,4.8,No
2024/01/24,09:40,0.146,0.127,0.205,0.195,0.203,0.116,0.076,west,6.6,No
2024/01/24,09:50,0.145,0.127,0.206,0.194,0.204,0.116,0.076,west,6.2,No
2024/01/24,10:00,0.146,0.127,0.205,0.195,0.204,0.117,0.076,west-southwest,4.2,No
2024/01/24,10:10,0.146,0.127,0.206,0.196,0.203,0.115,0.076,west-southwest,6.4,Yes
2024/01/24,10:20,0.145,0.128,0.206,0.195,0.203,0.116,0.075,west,5.2,No
2024/01/24,10:30,0.144,0.126,0.206,0.195,0.204,0.116,0.076,west,6.7,No
2024/01/24,10:40,0.145,0.127,0.205,0.197,0.202,0.116,0.075,west-northwest,7.0,No
2024/01/24,10:50,0.145,0.128,0.206,0.196,0.203,0.116,0.075,west,6.5,No
2024/01/24,11:00,0.145,0.128,0.205,0.195,0.205,0.116,0.076,west-northwest,7.4,No
2024/01/24,11:10,0.146,0.126,0.206,0.194,0.204,0.116,0.076,west-northwest,10.3,No
2024/01/24,11:20,0.145,0.127,0.205,0.197,0.204,0.116,0.076,west,8.1,No
2024/01/24,11:30,0.145,0.128,0.205,0.194,0.205,0.116,0.075,west,8.1,No
2024/01/24,11:40,0.144,0.127,0.205,0.196,0.204,0.116,0.075,west,8.9,No
2024/01/24,11:50,0.145,0.127,0.205,0.196,0.205,0.116,0.075,west,8.1,No
2024/01/24,12:00,0.145,0.127,0.205,0.196,0.205,0.116,0.075,west,8.9,No
2024/01/24,12:10,0.145,0.127,0.205,0.196,0.204,0.116,0.075,west,10.9,No
2024/01/24,12:20,0.145,0.126,0.206,0.196,0.204,0.116,0.075,west,11.2,No
2024/01/24,12:30,0.144,0.127,0.206,0.197,0.206,0.117,0.076,west,8.8,No
2024/01/24,12:40,0.145,0.127,0.206,0.195,0.205,0.117,0.074,west,8.4,No
2024/01/24,12:50,0.146,0.127,0.206,0.195,0.204,0.116,0.075,west-northwest,11.5,No
2024/01/24,13:00,0.146,0.127,0.207,0.196,0.205,0.116,0.076,west,10.1,No
2024/01/24,13:10,0.145,0.128,0.205,0.196,0.204,0.116,0.075,west,9.2,No
2024/01/24,13:20,0.145,0.128,0.206,0.196,0.205,0.116,0.076,west,8.2,No
2024/01/24,13:30,0.146,0.127,0.206,0.196,0.205,0.116,0.076,west,10.3,No
2024/01/24,13:40,0.146,0.128,0.208,0.196,0.204,0.116,0.076,west,6.5,No
2024/01/24,13:50,0.145,0.128,0.207,0.195,0.204,0.116,0.075,west-southwest,8.6,No
2024/01/24,14:00,0.146,0.128,0.206,0.195,0.206,0.117,0.075,west,10.1,No
2024/01/24,14:10,0.146,0.127,0.206,0.197,0.204,0.116,0.076,west,12.8,No
2024/01/24,14:20,0.146,0.127,0.207,0.196,0.204,0.117,0.075,west,10.3,No
2024/01/24,14:30,0.146,0.127,0.206,0.196,0.205,0.117,0.075,west,9.2,No
2024/01/24,14:40,0.146,0.127,0.207,0.196,0.204,0.116,0.076,west,6.8,No
2024/01/24,14:50,0.147,0.127,0.207,0.197,0.204,0.116,0.076,west,8.4,No
2024/01/24,15:00,0.146,0.128,0.207,0.198,0.204,0.116,0.075,west,8.5,No
2024/01/24,15:10,0.146,0.128,0.208,0.196,0.205,0.115,0.076,west,7.9,No
2024/01/24,15:20,0.146,0.128,0.206,0.196,0.205,0.116,0.076,west,8.6,No
2024/01/24,15:30,0.147,0.129,0.207,0.197,0.204,0.117,0.076,west,8.4,No
2024/01/24,15:40,0.145,0.127,0.207,0.196,0.205,0.116,0.075,west-northwest,3.4,No
2024/01/24,15:50,0.146,0.128,0.207,0.197,0.205,0.116,0.075,west-northwest,7.3,No
2024/01/24,16:00,0.147,0.127,0.207,0.198,0.206,0.116,0.076,west-northwest,8.9,No
2024/01/24,16:10,0.146,0.129,0.207,0.196,0.206,0.116,0.076,west-northwest,10.0,No
2024/01/24,16:20,0.146,0.128,0.207,0.197,0.205,0.116,0.076,west-northwest,8.1,No
2024/01/24,16:30,0.146,0.128,0.207,0.196,0.205,0.117,0.076,west-northwest,11.7,No
2024/01/24,16:40,0.147,0.127,0.207,0.196,0.203,0.116,0.076,west,15.1,No
2024/01/24,16:50,0.146,0.127,0.208,0.196,0.204,0.116,0.077,west,14.0,No
2024/01/24,17:00,0.146,0.128,0.208,0.196,0.204,0.117,0.076,west,14.6,No
2024/01/24,17:10,0.147,0.127,0.207,0.197,0.206,0.117,0.076,west,12.0,No
2024/01/24,17:20,0.146,0.128,0.207,0.197,0.206,0.116,0.076,west-northwest,13.9,No
2024/01/24,17:30,0.146,0.128,0.208,0.197,0.205,0.116,0.076,west,17.2,No
2024/01/24,17:40,0.146,0.128,0.208,0.196,0.204,0.117,0.076,west,14.5,No
2024/01/24,17:50,0.145,0.128,0.208,0.197,0.204,0.117,0.076,west-northwest,16.9,No
2024/01/24,18:00,0.146,0.128,0.208,0.198,0.205,0.117,0.076,west-northwest,14.6,No
2024/01/24,18:10,0.146,0.128,0.208,0.198,0.206,0.117,0.075,west,19.1,No
2024/01/24,18:20,0.146,0.127,0.206,0.198,0.204,0.117,0.076,west,16.6,No
2024/01/24,18:30,0.146,0.128,0.208,0.197,0.204,0.116,0.076,west,18.0,No
2024/01/24,18:40,0.145,0.128,0.208,0.196,0.205,0.117,0.076,west,15.8,No
2024/01/24,18:50,0.147,0.128,0.206,0.196,0.205,0.117,0.076,west-northwest,16.2,No
2024/01/24,19:00,0.146,0.128,0.208,0.198,0.204,0.116,0.076,west-northwest,16.9,No
2024/01/24,19:10,0.145,0.129,0.208,0.197,0.205,0.117,0.076,west-northwest,22.6,No
2024/01/24,19:20,0.146,0.127,0.208,0.197,0.205,0.116,0.076,west-northwest,19.4,No
2024/01/24,19:30,0.145,0.128,0.208,0.197,0.205,0.117,0.076,west,23.0,No
2024/01/24,19:40,0.146,0.127,0.208,0.197,0.205,0.117,0.076,west-northwest,19.0,No
2024/01/24,19:50,0.146,0.128,0.208,0.197,0.205,0.117,0.076,west,19.9,No
2024/01/24,20:00,0.147,0.129,0.206,0.197,0.205,0.116,0.076,west-northwest,19.9,No
2024/01/24,20:10,0.147,0.127,0.207,0.197,0.206,0.117,0.076,west-northwest,19.2,No
2024/01/24,20:20,0.146,0.128,0.208,0.198,0.204,0.117,0.076,west,21.2,No
2024/01/24,20:30,0.147,0.128,0.207,0.197,0.205,0.117,0.075,west-northwest,20.3,No
2024/01/24,20:40,0.146,0.128,0.207,0.196,0.205,0.117,0.076,west,22.3,No
2024/01/24,20:50,0.147,0.127,0.206,0.197,0.205,0.117,0.075,west,17.9,No
2024/01/24,21:00,0.146,0.128,0.207,0.198,0.206,0.117,0.076,west-northwest,16.1,No
2024/01/24,21:10,0.147,0.128,0.208,0.198,0.205,0.116,0.076,west,15.3,No
2024/01/24,21:20,0.146,0.128,0.208,0.197,0.205,0.117,0.075,west,18.7,No
2024/01/24,21:30,0.146,0.129,0.208,0.197,0.206,0.116,0.076,west-northwest,17.3,No
2024/01/24,21:40,0.146,0.128,0.207,0.197,0.205,0.117,0.075,west-northwest,16.2,No
2024/01/24,21:50,0.147,0.128,0.207,0.197,0.205,0.116,0.076,west,14.0,No
2024/01/24,22:00,0.147,0.129,0.207,0.196,0.206,0.118,0.076,northwest,13.1,No
2024/01/24,22:10,0.147,0.128,0.207,0.198,0.206,0.117,0.076,west-northwest,13.4,No
2024/01/24,22:20,0.147,0.128,0.207,0.196,0.204,0.116,0.076,west-northwest,11.4,No
2024/01/24,22:30,0.146,0.128,0.209,0.196,0.206,0.117,0.075,west-northwest,15.1,No
2024/01/24,22:40,0.147,0.127,0.208,0.197,0.205,0.117,0.076,-,CALM,No
2024/01/24,22:50,0.146,0.128,0.207,0.197,0.206,0.117,0.076,west,17.6,No
2024/01/24,23:00,0.146,0.128,0.207,0.197,0.205,0.116,0.076,west-northwest,18.0,No
2024/01/24,23:10,0.146,0.128,0.207,0.197,0.206,0.117,0.076,west,13.9,No
2024/01/24,23:20,0.147,0.128,0.207,0.197,0.205,0.117,0.076,west-northwest,9.2,No
2024/01/24,23:30,0.147,0.129,0.208,0.197,0.206,0.116,0.076,northwest,8.5,No
2024/01/24,23:40,0.146,0.129,0.208,0.198,0.206,0.117,0.076,west-northwest,9.8,No
2024/01/24,23:50,0.147,0.127,0.207,0.197,0.206,0.117,0.076,northwest,6.1,No
